Location: Alumbaugh
(37.5976°N, 83.9299°W)
Time: 11:25:48
(UTC+00:00)

Oscar 11 - Pass Details

Date: 04 April 2023
Orbit: 609 x 619 km, 97.7° (Epoch: 07 June)

Event Time Altitude Azimuth Distance (km) Brightness Sun altitude
Rises 10:06:48 0° 10° (N) 2,880 10.9 -14.3°
Reaches altitude 10° 10:08:59 10° 8° (N) 1,973 10.0 -13.9°
Maximum altitude 10:13:16 75° 284° (WNW) 637 6.9 -13.1°
Drops below altitude 10° 10:17:32 10° 199° (SSW) 1,964 9.3 -12.3°
Enters shadow 10:19:28 - 198° (SSW) 2,772 10.1 -12.0°
